CW8845 Weather Reports


Display with metric or nautical units.
time (UTC)temp
F
wind
direction
speed
MPH
gust
MPH
rain 1hr
in
rain 24hr
in
rain mn
in
humidity
%
barometer
mb
20260507104614 46 38 0.0 1.0 0.00 0.00 0.00 57 1016.4
20260507103626 46 38 0.0 0.0 0.00 0.00 0.00 59 1016.4
20260507102616 46 38 0.0 0.0 0.00 0.00 0.00 59 1016.5
20260507101623 46 38 0.0 1.0 0.00 0.00 0.00 59 1016.7
20260507100631 46 38 0.0 1.0 0.00 0.00 0.00 58 1016.6
20260507095631 45 38 0.0 1.0 0.00 0.00 0.00 57 1016.7
20260507094620 45 38 1.0 4.0 0.00 0.00 0.00 56 1016.8
20260507093630 46 331 2.0 3.0 0.00 0.00 0.00 56 1016.8
20260507092620 46 329 1.0 3.0 0.00 0.00 0.00 55 1016.9
20260507091630 46 329 0.0 3.0 0.00 0.00 0.00 54 1016.8
20260507090616 47 329 1.0 3.0 0.00 0.00 0.00 52 1016.7
20260507085614 47 329 1.0 2.0 0.00 0.00 0.00 50 1016.7
20260507084622 47 329 0.0 1.0 0.00 0.00 0.00 50 1016.7
20260507083613 46 329 1.0 2.0 0.00 0.00 0.00 49 1016.8
20260507082622 46 329 0.0 3.0 0.00 0.00 0.00 48 1016.8
20260507081629 48 329 0.0 3.0 0.00 0.00 0.00 46 1016.9
20260507080617 49 327 0.0 2.0 0.00 0.00 0.00 46 1016.8
20260507075644 49 327 0.0 3.0 0.00 0.00 0.00 45 1016.9
20260507074613 48 288 0.0 3.0 0.00 0.00 0.00 46 1016.9
20260507073623 47 153 1.0 5.0 0.00 0.00 0.00 46 1016.8
20260507072652 47 36 3.0 6.0 0.00 0.00 0.00 45 1017.0
20260507071621 48 300 1.0 3.0 0.00 0.00 0.00 45 1017.0
20260507070628 48 298 1.0 5.0 0.00 0.00 0.00 46 1017.1
20260507065626 47 282 1.0 5.0 0.00 0.00 0.00 47 1017.1
20260507064617 46 78 1.0 3.0 0.00 0.00 0.00 48 1017.1
20260507063647 48 129 1.0 5.0 0.00 0.00 0.00 45 1017.1
20260507062620 49 5 1.0 4.0 0.00 0.00 0.00 43 1017.2
20260507061629 49 5 2.0 5.0 0.00 0.00 0.00 42 1017.3
20260507060616 49 13 2.0 3.0 0.00 0.00 0.00 42 1017.2
20260507055613 49 97 1.0 4.0 0.00 0.00 0.00 42 1017.3
20260507054621 48 74 2.0 4.0 0.00 0.00 0.00 44 1017.3
20260507053613 49 60 3.0 5.0 0.00 0.00 0.00 43 1017.4
20260507052617 50 53 0.0 4.0 0.00 0.00 0.00 41 1017.4
20260507051627 51 11 1.0 3.0 0.00 0.00 0.00 41 1017.7
20260507050615 51 11 2.0 4.0 0.00 0.00 0.00 40 1017.6
20260507045639 51 44 2.0 5.0 0.00 0.00 0.00 40 1017.7
20260507044626 52 351 3.0 4.0 0.00 0.00 0.00 37 1017.7
20260507043615 53 351 1.0 3.0 0.00 0.00 0.00 36 1017.7
20260507042644 53 351 0.0 4.0 0.00 0.00 0.00 36 1017.7
20260507041649 53 350 2.0 5.0 0.00 0.00 0.00 35 1017.6
20260507040622 54 355 1.0 4.0 0.00 0.00 0.00 35 1017.5
20260507035622 55 311 0.0 4.0 0.00 0.00 0.00 33 1017.4
20260507034632 56 355 1.0 5.0 0.00 0.00 0.00 32 1017.3
20260507033620 57 5 2.0 3.0 0.00 0.00 0.00 31 1017.1
20260507032614 57 5 2.0 3.0 0.00 0.00 0.00 31 1017.0
20260507031624 58 5 2.0 3.0 0.00 0.00 0.00 30 1017.0
20260507030634 59 163 1.0 7.0 0.00 0.00 0.00 28 1016.6
20260507025630 59 196 4.0 7.0 0.00 0.00 0.00 29 1016.5
20260507024625 59 181 5.0 8.0 0.00 0.00 0.00 30 1016.3
20260507023613 59 176 4.0 8.0 0.00 0.00 0.00 30 1016.4
20260507022617 60 202 6.0 10.0 0.00 0.00 0.00 29 1016.5
20260507021626 61 173 6.0 11.0 0.00 0.00 0.00 29 1016.4
20260507020639 61 196 7.0 14.0 0.00 0.00 0.00 28 1016.2
20260507015634 62 219 7.0 13.0 0.00 0.00 0.00 27 1016.1
20260507014618 63 184 11.0 17.0 0.00 0.00 0.00 26 1015.9
20260507013646 64 186 8.0 13.0 0.00 0.00 0.00 25 1016.0
20260507012653 65 182 7.0 12.0 0.00 0.00 0.00 25 1016.1
20260507011624 65 206 7.0 13.0 0.00 0.00 0.00 24 1016.2
20260507010612 65 182 8.0 13.0 0.00 0.00 0.00 23 1016.2
20260507005612 66 205 6.0 10.0 0.00 0.00 0.00 23 1016.2
20260507004619 66 240 7.0 15.0 0.00 0.00 0.00 22 1016.3
20260507003613 67 190 9.0 14.0 0.00 0.00 0.00 23 1016.0
20260507002619 68 215 5.0 11.0 0.00 0.00 0.00 21 1016.1
20260507001629 68 319 0.0 5.0 0.00 0.00 0.00 21 1016.0
20260507000616 68 24 4.0 10.0 0.00 0.00 0.00 22 1016.0
20260506235622 68 355 4.0 10.0 0.00 0.00 0.00 22 1016.1
20260506234630 68 309 4.0 13.0 0.00 0.00 0.00 22 1016.2
20260506233616 68 24 4.0 14.0 0.00 0.00 0.00 21 1016.3
20260506232644 68 47 2.0 8.0 0.00 0.00 0.00 21 1016.3
20260506231615 68 334 5.0 10.0 0.00 0.00 0.00 21 1016.5
20260506230623 68 283 6.0 9.0 0.00 0.00 0.00 20 1016.5
20260506225620 68 348 2.0 10.0 0.00 0.00 0.00 20 1016.6
20260506224629 68 311 4.0 8.0 0.00 0.00 0.00 20 1016.7
20260506223620 68 323 5.0 10.0 0.00 0.00 0.00 20 1016.7
20260506222627 68 319 7.0 15.0 0.00 0.00 0.00 21 1016.7
20260506221615 67 284 3.0 9.0 0.00 0.00 0.00 21 1016.9
20260506220622 66 67 2.0 11.0 0.00 0.00 0.00 21 1017.0
20260506215621 67 355 2.0 12.0 0.00 0.00 0.00 21 1017.2
20260506214612 67 253 3.0 11.0 0.00 0.00 0.00 21 1017.2
20260506213641 67 312 2.0 7.0 0.00 0.00 0.00 21 1017.3
20260506212628 66 350 3.0 6.0 0.00 0.00 0.00 22 1017.2
20260506211614 66 276 2.0 11.0 0.00 0.00 0.00 21 1017.4
20260506210628 67 295 6.0 12.0 0.00 0.00 0.00 21 1017.4
20260506205624 66 234 4.0 8.0 0.00 0.00 0.00 21 1017.4
20260506204613 66 292 4.0 8.0 0.00 0.00 0.00 21 1017.6
20260506203621 65 24 1.0 9.0 0.00 0.00 0.00 20 1017.5
20260506202612 64 302 4.0 9.0 0.00 0.00 0.00 21 1017.6
20260506201619 65 360 4.0 11.0 0.00 0.00 0.00 21 1017.5
20260506200627 65 360 3.0 12.0 0.00 0.00 0.00 20 1017.6
20260506195612 65 284 2.0 10.0 0.00 0.00 0.00 21 1017.6
20260506194619 64 316 6.0 9.0 0.00 0.00 0.00 21 1017.6
20260506193625 64 355 6.0 16.0 0.00 0.00 0.00 20 1017.7
20260506192614 63 321 2.0 5.0 0.00 0.00 0.00 20 1017.7
20260506191620 63 185 2.0 11.0 0.00 0.00 0.00 21 1017.8
20260506190633 63 270 3.0 13.0 0.00 0.00 0.00 21 1018.0
20260506185631 62 317 4.0 12.0 0.00 0.01 0.00 21 1018.0
20260506184619 61 355 4.0 11.0 0.00 0.01 0.00 21 1018.1
20260506183624 60 61 2.0 10.0 0.00 0.01 0.00 21 1018.1
20260506182614 59 74 2.0 10.0 0.00 0.01 0.00 21 1018.2
20260506181622 59 22 5.0 10.0 0.00 0.01 0.00 21 1018.2
20260506180620 59 323 6.0 10.0 0.00 0.01 0.00 21 1018.3
20260506175618 59 263 4.0 13.0 0.00 0.02 0.00 21 1018.3
20260506174646 59 75 6.0 10.0 0.00 0.02 0.00 21 1018.4
20260506173617 58 5 4.0 11.0 0.00 0.02 0.00 22 1018.4
20260506172624 58 311 4.0 13.0 0.00 0.02 0.00 22 1018.4
20260506171630 57 54 8.0 15.0 0.00 0.02 0.00 21 1018.4
20260506170619 57 24 7.0 16.0 0.00 0.02 0.00 21 1018.3
20260506165624 57 5 8.0 15.0 0.00 0.02 0.00 20 1018.3
20260506164652 56 332 7.0 15.0 0.00 0.02 0.00 19 1018.4
20260506163641 55 15 7.0 18.0 0.00 0.02 0.00 18 1018.3
20260506162629 55 28 9.0 14.0 0.00 0.02 0.00 18 1018.2
20260506161619 54 344 9.0 14.0 0.00 0.02 0.00 18 1018.2
20260506160625 54 22 9.0 16.0 0.00 0.02 0.00 18 1018.2
20260506155622 53 22 8.0 15.0 0.00 0.02 0.00 20 1018.1
20260506154627 52 345 9.0 16.0 0.00 0.02 0.00 21 1018.0
20260506153637 52 40 10.0 14.0 0.00 0.02 0.00 21 1017.9
20260506152626 51 344 7.0 16.0 0.00 0.02 0.00 22 1017.9
20260506151634 50 36 10.0 14.0 0.00 0.02 0.00 23 1017.8
20260506150618 50 32 6.0 14.0 0.00 0.02 0.00 24 1017.8
20260506145615 49 331 7.0 14.0 0.00 0.02 0.00 24 1017.8
20260506144628 49 34 8.0 14.0 0.00 0.02 0.00 24 1017.8
20260506143618 48 59 8.0 13.0 0.00 0.02 0.00 26 1017.7
20260506142628 48 355 7.0 12.0 0.00 0.02 0.00 27 1017.7
20260506141628 47 360 8.0 14.0 0.00 0.02 0.00 26 1017.5
20260506140618 47 351 7.0 13.0 0.00 0.02 0.00 26 1017.5
20260506135614 46 346 6.0 13.0 0.00 0.02 0.00 28 1017.4
20260506134619 45 355 7.0 16.0 0.00 0.02 0.00 30 1017.2
20260506133627 45 5 8.0 12.0 0.00 0.02 0.00 31 1017.1
20260506132619 44 317 6.0 13.0 0.00 0.02 0.00 29 1017.0
20260506131627 43 348 6.0 12.0 0.00 0.02 0.00 31 1016.9
20260506130614 42 5 7.0 14.0 0.00 0.02 0.00 32 1016.8
20260506125616 42 317 5.0 13.0 0.00 0.02 0.00 31 1016.6
20260506124625 43 350 6.0 14.0 0.00 0.02 0.00 30 1016.4
20260506123632 43 332 8.0 13.0 0.00 0.02 0.00 30 1016.1
20260506122641 43 320 7.0 15.0 0.00 0.02 0.00 31 1015.9
20260506121630 42 308 8.0 16.0 0.00 0.02 0.00 32 1015.4
20260506120613 41 350 3.0 8.0 0.00 0.02 0.00 34 1015.3
20260506115615 42 318 1.0 10.0 0.00 0.02 0.00 34 1015.3
20260506114623 42 315 5.0 12.0 0.00 0.02 0.00 33 1015.4
20260506113651 43 327 5.0 11.0 0.00 0.02 0.00 32 1015.5
20260506112620 43 360 4.0 15.0 0.00 0.02 0.00 31 1015.5
20260506111614 43 11 4.0 10.0 0.00 0.02 0.00 32 1015.4
20260506110623 43 335 4.0 10.0 0.00 0.02 0.00 33 1015.3
20260506105619 43 335 4.0 10.0 0.00 0.02 0.00 32 1015.1